Weather History for KPBF - February, 2013

Change the Weather History Date:

Friday, February 15, 2013

  Actual Average Record
Temperature  
Mean Temperature 47 °F 46 °F  
Max Temperature 54 °F 56 °F 80 °F (1945)
Min Temperature 39 °F 36 °F 7 °F (1905)
Degree Days  
Heating Degree Days 18 19  
Month to date heating degree days 253 305  
Since 1 July heating degree days 1927 2163  
Cooling Degree Days 0 0  
Month to date cooling degree days 0 0  
Year to date cooling degree days 5 1  
Moisture  
Dew Point 31 °F    
Average Humidity 56    
Maximum Humidity 79    
Minimum Humidity 32    
Precipitation  
Precipitation T in 0.15 in 5.32 in (1939)
Month to date precipitation 1.75 2.01  
Year to date precipitation 8.68 5.77  
Snow  
Snow 0.00 in 0.00 in 1.00 in (1899)
Month to date snowfall 0.0 0.5  
Since 1 July snowfall 2.1 3.0  
Snow Depth 0.00 in    
Sea Level Pressure  
Sea Level Pressure 30.21 in    
Wind  
Wind Speed 9 mph (NNW)    
Max Wind Speed 17 mph    
Max Gust Speed 23 mph    
Visibility 10 miles    
Events      
T = Trace of Precipitation, MM = Missing Value Source: NWS Daily Summary

Daily Weather History Graph

Daily Weather History Graph

Search for Another Location

Airport or City:

Trip Planner

Search our weather history database for the weather conditions in past years. The results will help you decide how hot, cold, wet, or windy it might be!

Date:

Astronomy

Feb. 15, 2013 Rise Set
Actual Time 6:52 AM CST 5:51 PM CST
Civil Twilight 6:26 AM CST 6:17 PM CST
Nautical Twilight 5:57 AM CST 6:46 PM CST
Astronomical Twilight 5:28 AM CST 7:15 PM CST
Moon 9:46 AM CST (2/15) 11:34 PM CST (2/15)
Length of Visible Light 11h 50m
Length of Day
10h 59m
Waxing Crescent, 30% of the Moon is Illuminated
Feb 15
Waxing Crescent
Feb 17
First Quarter
Feb 25
Full
Mar 4
Last Quarter
Mar 11
New

Hourly Weather History & Observations

Time (CST) Temp. Windchill Dew Point Humidity Pressure Visibility Wind Dir Wind Speed Gust Speed Precip Events Conditions
12:53 AM 46.0 °F - 37.9 °F 73% 30.10 in 10.0 mi Calm Calm - N/A   Mostly Cloudy
1:53 AM 41.0 °F 38.0 °F 36.0 °F 82% 30.12 in 10.0 mi NW 4.6 mph - N/A   Clear
2:53 AM 45.0 °F 41.8 °F 36.0 °F 71% 30.14 in 10.0 mi NNW 5.8 mph - N/A   Clear
3:53 AM 46.0 °F 43.1 °F 36.0 °F 68% 30.16 in 10.0 mi North 5.8 mph - N/A   Mostly Cloudy
4:53 AM 44.1 °F 40.8 °F 35.1 °F 71% 30.16 in 10.0 mi North 5.8 mph - N/A   Clear
5:53 AM 43.0 °F 38.8 °F 34.0 °F 71% 30.19 in 10.0 mi NNW 6.9 mph - N/A   Clear
6:53 AM 43.0 °F 38.2 °F 34.0 °F 71% 30.21 in 10.0 mi NNW 8.1 mph - N/A   Scattered Clouds
7:53 AM 46.9 °F - 36.0 °F 66% 30.23 in 10.0 mi NNW 9.2 mph - N/A   Mostly Cloudy
8:53 AM 46.9 °F - 37.0 °F 68% 30.23 in 10.0 mi NNW 6.9 mph - 0.00 in   Overcast
9:53 AM 48.0 °F - 37.0 °F 66% 30.24 in 10.0 mi NNW 13.8 mph - N/A   Overcast
10:53 AM 51.1 °F - 35.1 °F 54% 30.25 in 10.0 mi North 12.7 mph - N/A   Clear
11:53 AM 52.0 °F - 30.9 °F 45% 30.25 in 10.0 mi North 12.7 mph 20.7 mph N/A   Partly Cloudy
12:53 PM 53.1 °F - 30.0 °F 41% 30.22 in 10.0 mi North 10.4 mph 16.1 mph N/A   Clear
1:53 PM 54.0 °F - 27.0 °F 35% 30.20 in 10.0 mi North 10.4 mph 18.4 mph N/A   Clear
2:53 PM 53.1 °F - 25.0 °F 34% 30.19 in 10.0 mi North 9.2 mph - N/A   Clear
3:53 PM 52.0 °F - 24.1 °F 34% 30.19 in 10.0 mi North 9.2 mph 18.4 mph N/A   Clear
4:53 PM 51.1 °F - 24.1 °F 35% 30.20 in 10.0 mi North 12.7 mph - N/A   Clear
5:53 PM 46.0 °F 40.6 °F 27.0 °F 47% 30.22 in 10.0 mi NNW 11.5 mph - N/A   Clear
6:53 PM 44.1 °F 38.6 °F 28.0 °F 53% 30.24 in 10.0 mi North 10.4 mph - N/A   Clear
7:53 PM 39.9 °F 34.5 °F 27.0 °F 60% 30.26 in 10.0 mi NNW 8.1 mph - N/A   Clear
8:53 PM 39.9 °F 35.1 °F 27.0 °F 60% 30.27 in 10.0 mi NW 6.9 mph - N/A   Clear
9:53 PM 39.0 °F 34.0 °F 26.1 °F 60% 30.27 in 10.0 mi NW 6.9 mph - N/A   Clear
10:53 PM 39.9 °F 35.1 °F 25.0 °F 55% 30.28 in 10.0 mi NW 6.9 mph - N/A   Partly Cloudy
11:53 PM 39.0 °F 31.4 °F 21.9 °F 50% 30.28 in 10.0 mi NNW 12.7 mph - N/A   Clear